^^
Datos históricos de la estación: Murcia-Puente Tocinos
Diario Informe para Marzo 22, 2019 Unidades:  Métrico    Inglés   Ambas
Diario Semanal Mensual Anual Configurable
  Máximo: Mínimo: Media:
Temperatura: 19.2 °C 8.2 °C 13.6 °C
Punto de rocio: 7.5 °C 1.7 °C 4.2 °C
Humedad: 67% 37% 54%
Velocidad viento: 13.0km/h 2.9km/h 7.2km/h
Racha viento: 23.3km/h - -
Viento- - South
Presión: 1026.0 hPa 1022.5 hPa -
Precipitación: 0.0 mm    
Historical Graphs
 
 
Tabla de datos para Marzo 22, 2019
Hora Temperatura Punto de rocio Presión Viento Velocidad viento Racha viento Humedad Intensidad lluvia(por hora) Nubes
00:00 10.5 °C 3.6 °C 1025.7 hPa WNW 3.2 km/h 8.0 km/h 62% 0.0 mm CLR
00:05 10.5 °C 3.9 °C 1025.7 hPa SE 3.2 km/h 9.3 km/h 64% 0.0 mm CLR
00:10 10.5 °C 4.2 °C 1025.7 hPa SE 4.7 km/h 5.6 km/h 65% 0.0 mm CLR
00:15 10.5 °C 4.2 °C 1025.7 hPa SE 4.7 km/h 4.7 km/h 65% 0.0 mm CLR
00:20 10.4 °C 4.1 °C 1025.6 hPa SE 3.2 km/h 3.7 km/h 65% 0.0 mm CLR
00:25 10.4 °C 4.1 °C 1025.6 hPa SE 3.2 km/h 7.4 km/h 65% 0.0 mm CLR
00:30 10.5 °C 4.4 °C 1025.6 hPa SE 3.2 km/h 5.0 km/h 66% 0.0 mm CLR
00:35 10.5 °C 4.4 °C 1025.6 hPa SSE 3.2 km/h 7.4 km/h 66% 0.0 mm CLR
00:40 10.4 °C 4.1 °C 1025.6 hPa WSW 3.9 km/h 7.4 km/h 65% 0.0 mm CLR
00:45 10.4 °C 3.9 °C 1025.6 hPa WSW 3.9 km/h 5.6 km/h 64% 0.0 mm CLR
00:50 10.3 °C 3.6 °C 1025.4 hPa WSW 4.7 km/h 7.4 km/h 63% 0.0 mm CLR
00:55 10.3 °C 3.6 °C 1025.4 hPa WSW 4.7 km/h 7.6 km/h 63% 0.0 mm CLR
01:00 10.3 °C 3.6 °C 1025.4 hPa WSW 3.2 km/h 9.7 km/h 63% 0.0 mm CLR
01:05 10.3 °C 3.6 °C 1025.3 hPa WSW 4.7 km/h 3.7 km/h 63% 0.0 mm CLR
01:10 10.4 °C 3.7 °C 1025.3 hPa SSW 3.9 km/h 7.6 km/h 63% 0.0 mm CLR
01:15 10.4 °C 3.7 °C 1025.3 hPa SW 3.9 km/h 9.3 km/h 63% 0.0 mm CLR
01:20 10.3 °C 3.6 °C 1025.3 hPa SSW 6.4 km/h 9.3 km/h 63% 0.0 mm CLR
01:25 10.2 °C 3.4 °C 1025.3 hPa SSW 6.4 km/h 9.5 km/h 63% 0.0 mm CLR
01:30 10.1 °C 3.4 °C 1025.3 hPa SSW 6.4 km/h 9.3 km/h 63% 0.0 mm CLR
01:35 10.0 °C 3.3 °C 1025.3 hPa SW 6.4 km/h 7.4 km/h 63% 0.0 mm CLR
01:40 9.9 °C 3.2 °C 1025.3 hPa SSW 6.4 km/h 9.3 km/h 63% 0.0 mm CLR
01:45 9.9 °C 3.2 °C 1025.3 hPa SSW 6.4 km/h 7.4 km/h 63% 0.0 mm CLR
01:50 9.8 °C 3.1 °C 1025.3 hPa SSW 6.4 km/h 7.4 km/h 63% 0.0 mm CLR
01:55 9.8 °C 3.1 °C 1025.3 hPa WSW 6.4 km/h 7.6 km/h 63% 0.0 mm CLR
02:00 9.7 °C 3.0 °C 1025.3 hPa SSW 8.0 km/h 9.7 km/h 63% 0.0 mm CLR
02:05 9.6 °C 2.7 °C 1025.4 hPa SW 6.4 km/h 11.9 km/h 62% 0.0 mm CLR
02:10 9.6 °C 2.7 °C 1025.4 hPa SW 7.6 km/h 13.0 km/h 62% 0.0 mm CLR
02:15 9.6 °C 2.7 °C 1025.4 hPa SW 7.6 km/h 13.0 km/h 62% 0.0 mm CLR
02:20 9.5 °C 2.6 °C 1025.4 hPa SW 8.7 km/h 9.3 km/h 62% 0.0 mm CLR
02:25 9.5 °C 2.8 °C 1025.4 hPa SW 8.7 km/h 13.0 km/h 63% 0.0 mm CLR
02:30 9.4 °C 2.5 °C 1025.4 hPa SSW 7.6 km/h 9.3 km/h 62% 0.0 mm CLR
02:35 9.4 °C 2.5 °C 1025.4 hPa SSW 7.6 km/h 13.0 km/h 62% 0.0 mm CLR
02:40 9.4 °C 2.7 °C 1025.4 hPa SW 6.9 km/h 11.1 km/h 63% 0.0 mm CLR
02:45 9.2 °C 2.7 °C 1025.4 hPa SSW 6.9 km/h 13.0 km/h 64% 0.0 mm CLR
02:50 9.2 °C 2.9 °C 1025.5 hPa SW 8.7 km/h 13.0 km/h 65% 0.0 mm CLR
02:55 9.2 °C 2.9 °C 1025.5 hPa SSW 8.7 km/h 11.1 km/h 65% 0.0 mm CLR
03:00 9.2 °C 2.9 °C 1025.5 hPa SSW 9.7 km/h 12.9 km/h 65% 0.0 mm CLR
03:05 9.2 °C 2.7 °C 1025.3 hPa SW 8.7 km/h 13.0 km/h 64% 0.0 mm CLR
03:10 9.2 °C 2.7 °C 1025.3 hPa SSW 9.5 km/h 14.8 km/h 64% 0.0 mm CLR
03:15 9.2 °C 2.5 °C 1025.3 hPa SSW 9.5 km/h 16.7 km/h 63% 0.0 mm CLR
03:20 9.2 °C 2.5 °C 1025.1 hPa SW 10.0 km/h 14.8 km/h 63% 0.0 mm CLR
03:25 9.2 °C 2.3 °C 1025.1 hPa SW 10.0 km/h 13.0 km/h 62% 0.0 mm CLR
03:30 9.2 °C 2.1 °C 1025.1 hPa SW 8.7 km/h 13.0 km/h 61% 0.0 mm CLR
03:35 9.2 °C 1.8 °C 1024.9 hPa SW 8.7 km/h 11.1 km/h 60% 0.0 mm CLR
03:40 9.2 °C 1.8 °C 1024.9 hPa SW 8.7 km/h 13.0 km/h 60% 0.0 mm CLR
03:45 9.2 °C 1.8 °C 1024.9 hPa SW 8.7 km/h 13.0 km/h 60% 0.0 mm CLR
03:50 9.1 °C 1.7 °C 1025.0 hPa SW 8.4 km/h 9.3 km/h 60% 0.0 mm CLR
03:55 9.1 °C 1.7 °C 1025.0 hPa SW 8.4 km/h 8.4 km/h 60% 0.0 mm CLR
04:00 9.1 °C 1.7 °C 1025.0 hPa SW 8.0 km/h 12.9 km/h 60% 0.0 mm CLR
04:05 9.1 °C 1.9 °C 1025.0 hPa SSW 6.4 km/h 13.0 km/h 61% 0.0 mm CLR
04:10 9.1 °C 1.9 °C 1025.0 hPa SW 8.4 km/h 11.1 km/h 61% 0.0 mm CLR
04:15 9.1 °C 2.2 °C 1025.0 hPa SSE 8.4 km/h 16.7 km/h 62% 0.0 mm CLR
04:20 9.1 °C 2.2 °C 1025.0 hPa SW 8.4 km/h 9.3 km/h 62% 0.0 mm CLR
04:25 9.2 °C 2.3 °C 1025.0 hPa WSW 8.4 km/h 11.1 km/h 62% 0.0 mm CLR
04:30 9.2 °C 2.3 °C 1025.0 hPa SW 7.6 km/h 14.8 km/h 62% 0.0 mm CLR
04:35 9.2 °C 2.3 °C 1024.9 hPa SSW 7.6 km/h 16.7 km/h 62% 0.0 mm CLR
04:40 9.1 °C 2.2 °C 1024.9 hPa SW 9.5 km/h 14.8 km/h 62% 0.0 mm CLR
04:45 9.1 °C 2.2 °C 1024.9 hPa SSW 9.5 km/h 11.1 km/h 62% 0.0 mm CLR
04:50 9.1 °C 2.4 °C 1024.8 hPa WSW 9.5 km/h 11.1 km/h 63% 0.0 mm CLR
04:55 9.1 °C 2.4 °C 1024.8 hPa SSW 9.5 km/h 11.1 km/h 63% 0.0 mm CLR
05:00 9.1 °C 2.4 °C 1024.8 hPa SW 8.0 km/h 14.5 km/h 63% 0.0 mm CLR
05:05 9.1 °C 2.4 °C 1024.9 hPa SW 7.6 km/h 11.1 km/h 63% 0.0 mm CLR
05:10 9.1 °C 2.4 °C 1024.9 hPa WSW 8.7 km/h 11.1 km/h 63% 0.0 mm CLR
05:15 9.1 °C 2.4 °C 1024.9 hPa SW 8.7 km/h 13.0 km/h 63% 0.0 mm CLR
05:20 9.0 °C 2.3 °C 1024.9 hPa WSW 7.6 km/h 11.9 km/h 63% 0.0 mm CLR
05:25 9.0 °C 2.6 °C 1024.9 hPa WSW 7.6 km/h 13.0 km/h 64% 0.0 mm CLR
05:30 8.9 °C 2.4 °C 1024.9 hPa WSW 7.6 km/h 9.5 km/h 64% 0.0 mm CLR
05:35 8.9 °C 2.4 °C 1024.9 hPa SSW 7.6 km/h 8.7 km/h 64% 0.0 mm CLR
05:40 8.8 °C 2.3 °C 1024.9 hPa WSW 6.4 km/h 7.6 km/h 64% 0.0 mm CLR
05:45 8.8 °C 2.3 °C 1024.9 hPa SSW 6.4 km/h 7.4 km/h 64% 0.0 mm CLR
05:50 8.7 °C 2.5 °C 1024.9 hPa SW 5.8 km/h 11.1 km/h 65% 0.0 mm CLR
05:55 8.6 °C 2.4 °C 1024.9 hPa SW 5.8 km/h 7.6 km/h 65% 0.0 mm CLR
06:00 8.5 °C 2.3 °C 1024.9 hPa WSW 8.0 km/h 12.9 km/h 65% 0.0 mm CLR
06:05 8.4 °C 2.4 °C 1024.8 hPa WSW 6.4 km/h 9.3 km/h 66% 0.0 mm CLR
06:10 8.3 °C 2.3 °C 1024.8 hPa SW 6.9 km/h 9.3 km/h 66% 0.0 mm CLR
06:15 8.2 °C 2.2 °C 1024.8 hPa SW 6.9 km/h 9.3 km/h 66% 0.0 mm CLR
06:20 8.3 °C 2.3 °C 1024.8 hPa SW 7.6 km/h 12.2 km/h 66% 0.0 mm CLR
06:25 8.3 °C 2.3 °C 1024.8 hPa SSW 7.6 km/h 14.8 km/h 66% 0.0 mm CLR
06:30 8.4 °C 2.4 °C 1024.8 hPa SSW 8.4 km/h 13.0 km/h 66% 0.0 mm CLR
06:35 8.5 °C 2.3 °C 1024.8 hPa SW 8.4 km/h 9.3 km/h 65% 0.0 mm CLR
06:40 8.6 °C 2.4 °C 1024.8 hPa SW 7.6 km/h 9.3 km/h 65% 0.0 mm CLR
06:45 8.6 °C 2.4 °C 1024.8 hPa SSW 7.6 km/h 11.1 km/h 65% 0.0 mm CLR
06:50 8.6 °C 2.4 °C 1024.9 hPa West 6.4 km/h 9.3 km/h 65% 0.0 mm CLR
06:55 8.6 °C 2.4 °C 1024.9 hPa WSW 6.4 km/h 7.6 km/h 65% 0.0 mm CLR
07:00 8.4 °C 2.2 °C 1024.9 hPa WSW 4.8 km/h 11.3 km/h 65% 0.0 mm CLR
07:05 8.3 °C 2.3 °C 1025.0 hPa West 5.8 km/h 7.6 km/h 66% 0.0 mm CLR
07:10 8.2 °C 2.2 °C 1025.0 hPa West 5.0 km/h 5.6 km/h 66% 0.0 mm CLR
07:15 8.2 °C 2.4 °C 1025.0 hPa SW 5.0 km/h 9.3 km/h 67% 0.0 mm CLR
07:20 8.3 °C 2.5 °C 1025.2 hPa SW 5.8 km/h 11.1 km/h 67% 0.0 mm CLR
07:25 8.4 °C 2.4 °C 1025.2 hPa SSW 5.8 km/h 13.0 km/h 66% 0.0 mm CLR
07:30 8.5 °C 2.5 °C 1025.2 hPa SW 8.4 km/h 13.0 km/h 66% 0.0 mm CLR
07:35 8.6 °C 2.6 °C 1025.4 hPa SW 8.4 km/h 13.0 km/h 66% 0.0 mm CLR
07:40 8.6 °C 2.6 °C 1025.4 hPa South 8.4 km/h 11.1 km/h 66% 0.0 mm CLR
07:45 8.7 °C 2.7 °C 1025.4 hPa SW 8.4 km/h 13.0 km/h 66% 0.0 mm CLR
07:50 8.7 °C 2.5 °C 1025.5 hPa SW 6.4 km/h 7.4 km/h 65% 0.0 mm CLR
07:55 8.8 °C 2.6 °C 1025.5 hPa SSE 6.4 km/h 7.4 km/h 65% 0.0 mm CLR
08:00 8.9 °C 2.7 °C 1025.5 hPa South 3.2 km/h 9.7 km/h 65% 0.0 mm CLR
08:05 9.0 °C 2.6 °C 1025.7 hPa SSW 4.7 km/h 10.3 km/h 64% 0.0 mm CLR
08:10 9.2 °C 2.7 °C 1025.7 hPa SSW 6.4 km/h 11.9 km/h 64% 0.0 mm CLR
08:15 9.3 °C 2.6 °C 1025.7 hPa SSE 6.4 km/h 9.3 km/h 63% 0.0 mm CLR
08:20 9.4 °C 2.7 °C 1025.6 hPa SW 8.4 km/h 13.0 km/h 63% 0.0 mm CLR
08:25 9.7 °C 2.8 °C 1025.6 hPa SSW 8.4 km/h 13.0 km/h 62% 0.0 mm CLR
08:30 9.8 °C 2.8 °C 1025.6 hPa WSW 8.4 km/h 9.3 km/h 62% 0.0 mm CLR
08:35 10.0 °C 2.8 °C 1025.6 hPa SSW 8.4 km/h 14.8 km/h 61% 0.0 mm CLR
08:40 10.0 °C 2.6 °C 1025.6 hPa SSW 6.9 km/h 14.8 km/h 60% 0.0 mm CLR
08:45 10.1 °C 2.7 °C 1025.6 hPa South 6.9 km/h 10.3 km/h 60% 0.0 mm CLR
08:50 10.2 °C 2.8 °C 1025.6 hPa SSW 9.5 km/h 16.7 km/h 60% 0.0 mm CLR
08:55 10.4 °C 2.7 °C 1025.6 hPa WSW 9.5 km/h 16.7 km/h 59% 0.0 mm CLR
09:00 10.4 °C 2.8 °C 1025.6 hPa SSW 9.7 km/h 14.5 km/h 59% 0.0 mm CLR
09:05 10.7 °C 3.0 °C 1025.7 hPa SW 8.7 km/h 16.7 km/h 59% 0.0 mm CLR
09:10 10.7 °C 2.8 °C 1025.7 hPa SW 9.5 km/h 16.7 km/h 58% 0.0 mm CLR
09:15 10.7 °C 3.0 °C 1025.7 hPa West 9.5 km/h 16.7 km/h 59% 0.0 mm CLR
09:20 10.9 °C 2.9 °C 1025.7 hPa SW 8.7 km/h 18.5 km/h 58% 0.0 mm CLR
09:25 11.1 °C 3.2 °C 1025.7 hPa WSW 8.7 km/h 13.0 km/h 58% 0.0 mm CLR
09:30 11.2 °C 3.2 °C 1025.7 hPa WSW 10.0 km/h 14.8 km/h 58% 0.0 mm CLR
09:35 11.4 °C 3.2 °C 1025.8 hPa West 10.0 km/h 14.8 km/h 57% 0.0 mm CLR
09:40 11.6 °C 3.4 °C 1025.8 hPa SW 8.7 km/h 14.0 km/h 57% 0.0 mm CLR
09:45 11.7 °C 3.4 °C 1025.8 hPa SSW 8.7 km/h 13.0 km/h 57% 0.0 mm CLR
09:50 11.8 °C 3.3 °C 1025.9 hPa SW 8.7 km/h 11.9 km/h 56% 0.0 mm CLR
09:55 11.9 °C 3.4 °C 1025.9 hPa West 8.7 km/h 13.0 km/h 56% 0.0 mm CLR
10:00 12.1 °C 3.6 °C 1025.9 hPa SW 8.0 km/h 19.3 km/h 56% 0.0 mm CLR
10:05 12.2 °C 3.4 °C 1026.0 hPa WSW 7.6 km/h 14.8 km/h 55% 0.0 mm CLR
10:10 12.3 °C 3.8 °C 1026.0 hPa South 8.7 km/h 11.1 km/h 56% 0.0 mm CLR
10:15 12.3 °C 3.5 °C 1026.0 hPa West 8.7 km/h 9.3 km/h 55% 0.0 mm CLR
10:20 12.5 °C 3.7 °C 1026.0 hPa SW 8.7 km/h 13.0 km/h 55% 0.0 mm CLR
10:25 12.8 °C 3.7 °C 1026.0 hPa SW 8.7 km/h 14.8 km/h 54% 0.0 mm CLR
10:30 12.9 °C 3.6 °C 1026.0 hPa SW 8.7 km/h 14.8 km/h 53% 0.0 mm CLR
10:35 13.1 °C 3.7 °C 1025.9 hPa West 8.7 km/h 14.8 km/h 53% 0.0 mm CLR
10:40 13.2 °C 3.8 °C 1025.9 hPa WSW 8.7 km/h 14.8 km/h 53% 0.0 mm CLR
10:45 13.2 °C 3.8 °C 1025.9 hPa South 8.7 km/h 9.5 km/h 53% 0.0 mm CLR
10:50 13.4 °C 3.7 °C 1025.7 hPa SSW 8.7 km/h 13.7 km/h 52% 0.0 mm CLR
10:55 13.7 °C 4.0 °C 1025.7 hPa WSW 8.7 km/h 13.0 km/h 52% 0.0 mm CLR
11:00 13.8 °C 3.8 °C 1025.7 hPa SW 8.0 km/h 16.1 km/h 51% 0.0 mm CLR
11:05 13.9 °C 3.9 °C 1025.7 hPa SW 8.4 km/h 16.7 km/h 51% 0.0 mm CLR
11:10 13.9 °C 3.9 °C 1025.7 hPa WSW 9.5 km/h 13.0 km/h 51% 0.0 mm CLR
11:15 14.1 °C 3.8 °C 1025.7 hPa West 9.5 km/h 7.4 km/h 50% 0.0 mm CLR
11:20 14.3 °C 4.0 °C 1025.5 hPa WSW 5.8 km/h 10.3 km/h 50% 0.0 mm CLR
11:25 14.4 °C 3.8 °C 1025.5 hPa WSW 5.8 km/h 13.0 km/h 49% 0.0 mm CLR
11:30 14.4 °C 3.8 °C 1025.5 hPa WNW 7.6 km/h 16.7 km/h 49% 0.0 mm CLR
11:35 14.5 °C 3.6 °C 1025.4 hPa WNW 7.6 km/h 10.3 km/h 48% 0.0 mm CLR
11:40 14.7 °C 3.8 °C 1025.4 hPa SSW 8.4 km/h 13.0 km/h 48% 0.0 mm CLR
11:45 14.9 °C 3.7 °C 1025.4 hPa WSW 8.4 km/h 18.5 km/h 47% 0.0 mm CLR
11:50 15.1 °C 3.6 °C 1025.1 hPa SSW 10.0 km/h 11.1 km/h 46% 0.0 mm CLR
11:55 15.4 °C 3.5 °C 1025.1 hPa SSW 10.0 km/h 14.8 km/h 45% 0.0 mm CLR
12:00 15.6 °C 3.4 °C 1025.1 hPa WSW 9.7 km/h 19.3 km/h 44% 0.0 mm CLR
12:05 15.7 °C 3.8 °C 1025.0 hPa SW 9.5 km/h 13.7 km/h 45% 0.0 mm CLR
12:10 15.8 °C 3.6 °C 1025.0 hPa SSW 8.7 km/h 7.4 km/h 44% 0.0 mm CLR
12:15 15.9 °C 3.7 °C 1025.0 hPa WSW 8.7 km/h 14.0 km/h 44% 0.0 mm CLR
12:20 16.1 °C 3.8 °C 1024.7 hPa SSE 8.4 km/h 13.0 km/h 44% 0.0 mm CLR
12:25 16.2 °C 3.6 °C 1024.7 hPa SW 8.4 km/h 7.6 km/h 43% 0.0 mm CLR
12:30 16.4 °C 3.8 °C 1024.7 hPa South 6.9 km/h 13.0 km/h 43% 0.0 mm CLR
12:35 16.6 °C 3.6 °C 1024.5 hPa WSW 6.9 km/h 7.4 km/h 42% 0.0 mm CLR
12:40 16.8 °C 3.8 °C 1024.5 hPa SSW 6.9 km/h 13.0 km/h 42% 0.0 mm CLR
12:45 17.0 °C 3.7 °C 1024.5 hPa SSW 6.9 km/h 5.6 km/h 41% 0.0 mm CLR
12:50 17.2 °C 3.4 °C 1024.2 hPa West 7.6 km/h 13.0 km/h 40% 0.0 mm CLR
12:55 17.1 °C 3.7 °C 1024.2 hPa South 7.6 km/h 9.3 km/h 41% 0.0 mm CLR
13:00 17.2 °C 3.4 °C 1024.2 hPa SW 8.0 km/h 14.5 km/h 40% 0.0 mm CLR
13:05 17.3 °C 3.6 °C 1024.2 hPa SSE 7.6 km/h 9.3 km/h 40% 0.0 mm CLR
13:10 17.5 °C 3.4 °C 1024.2 hPa WSW 6.4 km/h 14.8 km/h 39% 0.0 mm CLR
13:15 17.5 °C 3.7 °C 1024.2 hPa South 6.4 km/h 9.3 km/h 40% 0.0 mm CLR
13:20 17.6 °C 3.4 °C 1024.1 hPa West 7.6 km/h 9.3 km/h 39% 0.0 mm CLR
13:25 17.8 °C 3.7 °C 1024.1 hPa NW 7.6 km/h 9.3 km/h 39% 0.0 mm CLR
13:30 18.0 °C 3.8 °C 1024.1 hPa NE 5.8 km/h 7.4 km/h 39% 0.0 mm CLR
13:35 18.3 °C 3.7 °C 1023.8 hPa NE 5.8 km/h 7.4 km/h 38% 0.0 mm CLR
13:40 18.5 °C 3.9 °C 1023.8 hPa ESE 3.9 km/h 11.1 km/h 38% 0.0 mm CLR
13:45 18.6 °C 3.6 °C 1023.8 hPa NE 3.9 km/h 13.0 km/h 37% 0.0 mm CLR
13:50 18.4 °C 3.8 °C 1023.7 hPa NE 6.9 km/h 5.6 km/h 38% 0.0 mm CLR
13:55 18.3 °C 3.3 °C 1023.7 hPa ENE 6.9 km/h 14.8 km/h 37% 0.0 mm CLR
14:00 18.3 °C 3.7 °C 1023.7 hPa East 8.0 km/h 14.5 km/h 38% 0.0 mm CLR
14:05 18.6 °C 4.0 °C 1023.5 hPa East 7.6 km/h 9.3 km/h 38% 0.0 mm CLR
14:10 18.7 °C 4.1 °C 1023.5 hPa North 5.8 km/h 14.8 km/h 38% 0.0 mm CLR
14:15 18.6 °C 4.0 °C 1023.5 hPa NNE 5.8 km/h 20.9 km/h 38% 0.0 mm CLR
14:20 18.5 °C 3.9 °C 1023.3 hPa NE 8.4 km/h 16.7 km/h 38% 0.0 mm CLR
14:25 18.4 °C 3.8 °C 1023.3 hPa SSW 8.4 km/h 14.8 km/h 38% 0.0 mm CLR
14:30 18.4 °C 3.8 °C 1023.3 hPa NNW 8.7 km/h 11.1 km/h 38% 0.0 mm CLR
14:35 18.6 °C 4.0 °C 1023.1 hPa ESE 8.7 km/h 16.1 km/h 38% 0.0 mm CLR
14:40 18.7 °C 4.1 °C 1023.1 hPa ESE 7.6 km/h 5.6 km/h 38% 0.0 mm CLR
14:45 19.0 °C 3.9 °C 1023.1 hPa ENE 7.6 km/h 14.8 km/h 37% 0.0 mm CLR
14:50 19.1 °C 4.1 °C 1023.0 hPa NE 6.4 km/h 9.3 km/h 37% 0.0 mm CLR
14:55 18.9 °C 3.9 °C 1023.0 hPa NE 6.4 km/h 20.9 km/h 37% 0.0 mm CLR
15:00 18.9 °C 3.9 °C 1023.0 hPa NNE 9.7 km/h 20.9 km/h 37% 0.0 mm CLR
15:05 19.0 °C 3.9 °C 1022.9 hPa North 10.0 km/h 7.6 km/h 37% 0.0 mm CLR
15:10 19.1 °C 4.4 °C 1022.9 hPa ENE 6.9 km/h 18.5 km/h 38% 0.0 mm CLR
15:15 19.1 °C 4.4 °C 1022.9 hPa ENE 6.9 km/h 18.5 km/h 38% 0.0 mm CLR
15:20 19.2 °C 4.5 °C 1022.9 hPa East 11.9 km/h 18.5 km/h 38% 0.0 mm CLR
15:25 19.2 °C 4.5 °C 1022.9 hPa ENE 11.9 km/h 14.8 km/h 38% 0.0 mm CLR
15:30 19.1 °C 4.8 °C 1022.9 hPa NE 10.3 km/h 18.5 km/h 39% 0.0 mm CLR
15:35 19.2 °C 4.5 °C 1022.8 hPa ENE 10.3 km/h 18.3 km/h 38% 0.0 mm CLR
15:40 19.1 °C 4.8 °C 1022.8 hPa NE 12.2 km/h 14.8 km/h 39% 0.0 mm CLR
15:45 19.2 °C 4.5 °C 1022.8 hPa ENE 12.2 km/h 23.3 km/h 38% 0.0 mm CLR
15:50 19.1 °C 4.8 °C 1022.7 hPa ENE 11.1 km/h 22.2 km/h 39% 0.0 mm CLR
15:55 19.1 °C 4.8 °C 1022.7 hPa ESE 11.1 km/h 15.6 km/h 39% 0.0 mm CLR
16:00 18.9 °C 4.6 °C 1022.7 hPa East 11.3 km/h 22.5 km/h 39% 0.0 mm CLR
16:05 18.9 °C 4.6 °C 1022.7 hPa ESE 11.9 km/h 18.5 km/h 39% 0.0 mm CLR
16:10 18.9 °C 5.0 °C 1022.7 hPa ENE 10.3 km/h 22.2 km/h 40% 0.0 mm CLR
16:15 19.0 °C 5.1 °C 1022.7 hPa SE 10.3 km/h 20.4 km/h 40% 0.0 mm CLR
16:20 19.0 °C 4.7 °C 1022.7 hPa East 12.2 km/h 11.1 km/h 39% 0.0 mm CLR
16:25 18.8 °C 4.6 °C 1022.7 hPa NE 12.2 km/h 22.2 km/h 39% 0.0 mm CLR
16:30 18.7 °C 4.8 °C 1022.7 hPa NE 13.0 km/h 16.7 km/h 40% 0.0 mm CLR
16:35 18.7 °C 5.2 °C 1022.9 hPa ENE 13.0 km/h 13.0 km/h 41% 0.0 mm CLR
16:40 18.7 °C 5.2 °C 1022.9 hPa ENE 10.3 km/h 17.2 km/h 41% 0.0 mm CLR
16:45 18.6 °C 5.4 °C 1022.9 hPa NE 10.3 km/h 14.8 km/h 42% 0.0 mm CLR
16:50 18.6 °C 5.4 °C 1022.8 hPa ESE 11.9 km/h 13.0 km/h 42% 0.0 mm CLR
16:55 18.4 °C 5.2 °C 1022.8 hPa ENE 11.9 km/h 11.1 km/h 42% 0.0 mm CLR
17:00 18.3 °C 4.8 °C 1022.8 hPa NE 9.7 km/h 17.7 km/h 41% 0.0 mm CLR
17:05 18.2 °C 5.1 °C 1022.8 hPa ENE 9.5 km/h 16.7 km/h 42% 0.0 mm CLR
17:10 18.3 °C 5.5 °C 1022.8 hPa ENE 10.3 km/h 7.4 km/h 43% 0.0 mm CLR
17:15 18.5 °C 5.3 °C 1022.8 hPa NE 10.3 km/h 9.3 km/h 42% 0.0 mm CLR
17:20 18.5 °C 5.3 °C 1022.7 hPa ESE 5.8 km/h 7.4 km/h 42% 0.0 mm CLR
17:25 18.6 °C 5.4 °C 1022.7 hPa NE 5.8 km/h 9.3 km/h 42% 0.0 mm CLR
17:30 18.4 °C 5.2 °C 1022.7 hPa ENE 7.6 km/h 13.0 km/h 42% 0.0 mm CLR
17:35 18.4 °C 5.2 °C 1022.5 hPa ENE 7.6 km/h 11.9 km/h 42% 0.0 mm CLR
17:40 18.5 °C 5.3 °C 1022.5 hPa NE 7.6 km/h 7.4 km/h 42% 0.0 mm CLR
17:45 18.5 °C 5.3 °C 1022.5 hPa NE 7.6 km/h 13.0 km/h 42% 0.0 mm CLR
17:50 18.4 °C 4.9 °C 1022.5 hPa NE 8.4 km/h 18.5 km/h 41% 0.0 mm CLR
17:55 18.3 °C 5.2 °C 1022.5 hPa ENE 8.4 km/h 14.8 km/h 42% 0.0 mm CLR
18:00 18.3 °C 5.2 °C 1022.5 hPa NE 9.7 km/h 14.5 km/h 42% 0.0 mm CLR
18:05 18.3 °C 5.2 °C 1022.7 hPa NE 10.0 km/h 18.3 km/h 42% 0.0 mm CLR
18:10 18.3 °C 5.2 °C 1022.7 hPa East 8.7 km/h 11.1 km/h 42% 0.0 mm CLR
18:15 18.2 °C 5.1 °C 1022.7 hPa ENE 8.7 km/h 16.7 km/h 42% 0.0 mm CLR
18:20 18.2 °C 5.4 °C 1022.8 hPa East 8.7 km/h 11.1 km/h 43% 0.0 mm CLR
18:25 18.1 °C 5.3 °C 1022.8 hPa SE 8.7 km/h 16.7 km/h 43% 0.0 mm CLR
18:30 18.0 °C 5.6 °C 1022.8 hPa ENE 8.7 km/h 13.0 km/h 44% 0.0 mm CLR
18:35 17.9 °C 5.4 °C 1022.9 hPa East 8.7 km/h 18.5 km/h 44% 0.0 mm CLR
18:40 17.8 °C 5.7 °C 1022.9 hPa East 10.0 km/h 11.1 km/h 45% 0.0 mm CLR
18:45 17.8 °C 5.7 °C 1022.9 hPa ENE 10.0 km/h 14.8 km/h 45% 0.0 mm CLR
18:50 17.7 °C 5.9 °C 1023.0 hPa East 6.9 km/h 14.8 km/h 46% 0.0 mm CLR
18:55 17.6 °C 5.8 °C 1023.0 hPa SE 6.9 km/h 14.8 km/h 46% 0.0 mm CLR
19:00 17.6 °C 6.2 °C 1023.0 hPa East 9.7 km/h 12.9 km/h 47% 0.0 mm CLR
19:05 17.5 °C 6.1 °C 1023.0 hPa ENE 8.7 km/h 7.4 km/h 47% 0.0 mm CLR
19:10 17.5 °C 6.1 °C 1023.0 hPa NE 5.0 km/h 7.6 km/h 47% 0.0 mm CLR
19:15 17.4 °C 6.3 °C 1023.0 hPa ENE 5.0 km/h 9.5 km/h 48% 0.0 mm CLR
19:20 17.4 °C 6.3 °C 1023.2 hPa East 5.0 km/h 11.1 km/h 48% 0.0 mm CLR
19:25 17.2 °C 6.4 °C 1023.2 hPa ENE 5.0 km/h 14.8 km/h 49% 0.0 mm CLR
19:30 17.1 °C 6.6 °C 1023.2 hPa NE 8.7 km/h 9.3 km/h 50% 0.0 mm CLR
19:35 17.0 °C 6.8 °C 1023.3 hPa East 8.7 km/h 14.8 km/h 51% 0.0 mm CLR
19:40 16.8 °C 6.6 °C 1023.3 hPa East 8.4 km/h 11.1 km/h 51% 0.0 mm CLR
19:45 16.7 °C 6.5 °C 1023.3 hPa East 8.4 km/h 8.4 km/h 51% 0.0 mm CLR
19:50 16.6 °C 6.4 °C 1023.4 hPa East 5.8 km/h 3.9 km/h 51% 0.0 mm CLR
19:55 16.6 °C 6.4 °C 1023.4 hPa ENE 5.8 km/h 5.6 km/h 51% 0.0 mm CLR
20:00 16.4 °C 6.2 °C 1023.4 hPa ENE 3.2 km/h 8.0 km/h 51% 0.0 mm CLR
20:05 16.4 °C 6.5 °C 1023.6 hPa ENE 2.9 km/h 7.4 km/h 52% 0.0 mm CLR
20:10 16.3 °C 6.4 °C 1023.6 hPa ENE 4.7 km/h 7.4 km/h 52% 0.0 mm CLR
20:15 16.2 °C 6.6 °C 1023.6 hPa East 4.7 km/h 5.6 km/h 53% 0.0 mm CLR
20:20 16.2 °C 6.6 °C 1023.7 hPa East 4.7 km/h 5.6 km/h 53% 0.0 mm CLR
20:25 16.2 °C 6.6 °C 1023.7 hPa East 4.7 km/h 5.6 km/h 53% 0.0 mm CLR
20:30 16.2 °C 6.6 °C 1023.7 hPa ENE 3.9 km/h 7.4 km/h 53% 0.0 mm CLR
20:35 16.1 °C 6.8 °C 1023.9 hPa NE 3.9 km/h 7.4 km/h 54% 0.0 mm CLR
20:40 16.1 °C 6.8 °C 1023.9 hPa ENE 4.7 km/h 7.4 km/h 54% 0.0 mm CLR
20:45 15.9 °C 6.9 °C 1023.9 hPa NE 4.7 km/h 7.4 km/h 55% 0.0 mm CLR
20:50 15.9 °C 7.1 °C 1024.1 hPa ENE 4.7 km/h 7.4 km/h 56% 0.0 mm CLR
20:55 15.8 °C 7.1 °C 1024.1 hPa ENE 4.7 km/h 4.7 km/h 56% 0.0 mm CLR
21:00 15.8 °C 7.1 °C 1024.1 hPa NE 3.2 km/h 8.0 km/h 56% 0.0 mm CLR
21:05 15.7 °C 7.2 °C 1024.2 hPa NE 3.2 km/h 9.3 km/h 57% 0.0 mm CLR
21:10 15.6 °C 7.3 °C 1024.2 hPa NE 5.0 km/h 9.3 km/h 58% 0.0 mm CLR
21:15 15.4 °C 7.2 °C 1024.2 hPa NNE 5.0 km/h 7.4 km/h 58% 0.0 mm CLR
21:20 15.4 °C 7.4 °C 1024.3 hPa NNE 5.0 km/h 3.9 km/h 59% 0.0 mm CLR
21:25 15.3 °C 7.3 °C 1024.3 hPa NNE 5.0 km/h 4.7 km/h 59% 0.0 mm CLR
21:30 15.2 °C 7.2 °C 1024.3 hPa NE 2.9 km/h 5.6 km/h 59% 0.0 mm CLR
21:35 15.1 °C 7.4 °C 1024.3 hPa NE 2.9 km/h 3.9 km/h 60% 0.0 mm CLR
21:40 15.1 °C 7.4 °C 1024.3 hPa NE 2.9 km/h 4.7 km/h 60% 0.0 mm CLR
21:45 14.9 °C 7.4 °C 1024.3 hPa NE 2.9 km/h 7.4 km/h 61% 0.0 mm CLR
21:50 14.9 °C 7.4 °C 1024.3 hPa NE 4.7 km/h 7.4 km/h 61% 0.0 mm CLR
21:55 14.8 °C 7.3 °C 1024.3 hPa NE 4.7 km/h 5.6 km/h 61% 0.0 mm CLR
22:00 14.8 °C 7.3 °C 1024.3 hPa NE 3.2 km/h 6.4 km/h 61% 0.0 mm CLR
22:05 14.8 °C 7.3 °C 1024.5 hPa NW 3.2 km/h 5.8 km/h 61% 0.0 mm CLR
22:10 14.7 °C 7.3 °C 1024.5 hPa NW 3.2 km/h 7.4 km/h 61% 0.0 mm CLR
22:15 14.7 °C 7.3 °C 1024.5 hPa NNW 3.2 km/h 7.4 km/h 61% 0.0 mm CLR
22:20 14.7 °C 7.3 °C 1024.5 hPa NW 3.9 km/h 5.6 km/h 61% 0.0 mm CLR
22:25 14.7 °C 7.3 °C 1024.5 hPa NW 3.9 km/h 7.4 km/h 61% 0.0 mm CLR
22:30 14.7 °C 7.3 °C 1024.5 hPa NW 4.7 km/h 5.6 km/h 61% 0.0 mm CLR
22:35 14.7 °C 7.3 °C 1024.6 hPa NW 4.7 km/h 7.4 km/h 61% 0.0 mm CLR
22:40 14.7 °C 7.3 °C 1024.6 hPa NW 3.9 km/h 5.6 km/h 61% 0.0 mm CLR
22:45 14.6 °C 7.4 °C 1024.6 hPa NW 3.9 km/h 7.4 km/h 62% 0.0 mm CLR
22:50 14.6 °C 7.4 °C 1024.5 hPa WNW 5.0 km/h 7.4 km/h 62% 0.0 mm CLR
22:55 14.6 °C 7.4 °C 1024.5 hPa WNW 5.0 km/h 7.4 km/h 62% 0.0 mm CLR
23:00 14.6 °C 7.4 °C 1024.5 hPa WNW 3.2 km/h 8.0 km/h 62% 0.0 mm CLR
23:05 14.6 °C 7.4 °C 1024.5 hPa WNW 4.7 km/h 5.8 km/h 62% 0.0 mm CLR
23:10 14.6 °C 7.4 °C 1024.5 hPa WNW 3.9 km/h 3.7 km/h 62% 0.0 mm CLR
23:15 14.7 °C 7.3 °C 1024.5 hPa NW 3.9 km/h 5.6 km/h 61% 0.0 mm CLR
23:20 14.7 °C 7.3 °C 1024.5 hPa West 3.2 km/h 7.4 km/h 61% 0.0 mm CLR
23:25 14.7 °C 7.5 °C 1024.5 hPa WSW 3.2 km/h 7.4 km/h 62% 0.0 mm CLR
23:30 14.7 °C 7.3 °C 1024.5 hPa SW 3.9 km/h 5.6 km/h 61% 0.0 mm CLR
23:35 14.8 °C 7.3 °C 1024.2 hPa SSW 3.9 km/h 7.4 km/h 61% 0.0 mm CLR
23:40 14.8 °C 7.3 °C 1024.2 hPa SSW 5.0 km/h 5.6 km/h 61% 0.0 mm CLR
23:45 14.8 °C 7.3 °C 1024.2 hPa SSW 5.0 km/h 5.6 km/h 61% 0.0 mm CLR
23:50 14.9 °C 7.4 °C 1024.1 hPa SSW 3.9 km/h 7.4 km/h 61% 0.0 mm CLR
23:55 14.9 °C 7.4 °C 1024.1 hPa SSW 3.9 km/h 3.9 km/h 61% 0.0 mm CLR
Murcia-Puente Tocinos, España
Compliments of Weather Underground - 2.75 mb

La estación de MeteoMurcia.com, publica sus datos en los siguientes proyectos:

Weather Underground PWS IMURCIAP2 Meteoclimatic www.awekas.at

W3Counter
Web Analytics